Regional Weather Roundup
Issued by NWS

Home | Current Version | Previous Version | Graphics & Text | Print | Product List | Glossary On
Versions: 1 2 3 4 5 6 7 8 9 10 11 12 13 14 15 16 17 18 19 20 21 22 23 24 25 26 27 28 29 30 31 32 33 34 35 36 37 38 39 40 41 42 43 44 45 46 47 48 49 50
005
ASUS43 KMPX 300610
RWRMN
WEATHER ROUNDUP FOR MINNESOTA
NATIONAL WEATHER SERVICE TWIN CITIES/CHANHASSEN MN
100 AM CDT SAT JUL 30 2016


NOTE: "FAIR" INDICATES FEW OR NO CLOUDS BELOW 12,000 FEET WITH NO
SIGNIFICANT WEATHER AND/OR OBSTRUCTIONS TO VISIBILITY. N/A MEANS
CURRENT SKY AND/OR WEATHER CONDITIONS ARE NOT AVAILABLE.

MNZ060>063-068>070-300700-
   Twin Cities Metro

CITY           SKY/WX    TMP DP  RH WIND       PRES   REMARKS
TWIN CITIES    CLOUDY    71  57  61 CALM      30.03F
6HR MIN TEMP:  69; 6HR MAX TEMP:  77;

ST PAUL        CLOUDY    70  58  65 CALM      30.03F
CRYSTAL        MOCLDY    63  55  75 CALM      30.03S
BLAINE         PTCLDY    66  59  77 CALM      30.04S
LAKEVILLE      CLOUDY    63  63 100 CALM      30.04S
EDEN PRAIRIE   PTCLDY    65  56  72 N5        30.02F
6HR MIN TEMP:  65; 6HR MAX TEMP:  78;

LAKEVILLE      CLOUDY    63  63 100 CALM      30.04S
SOUTH ST PAUL  CLOUDY    70  57  64 CALM      30.03S
LAKE ELMO      CLOUDY    64  61  88 CALM      30.04F
$$
MNZ001>005-007-008-013>017-022>024-027-028-300700-
   Northwest Minnesota

CITY           SKY/WX    TMP DP  RH WIND       PRES   REMARKS
BEMIDJI        PTCLDY    64  60  88 S5        30.04S
HALLOCK        CLEAR     61  57  88 SE8       29.98S
ROSEAU         PTCLDY    61  54  77 S3        30.00F
WARROAD        PTCLDY    64  61  88 S3        30.01S
THIEF RVR FALL PTCLDY    58  55  90 CALM      30.02S
CROOKSTON      MOCLDY    63  57  82 S5        30.00F
FOSSTON        CLOUDY    54  48  82 SE3       30.03S
DETROIT LAKES  MOCLDY    66  63  88 S5        30.05S
MOORHEAD       LGT RAIN  66  63  88 CALM      30.01F
PARK RAPIDS    PTCLDY    65  60  84 SE5       30.05F
MAHNOMEN       MOCLDY    63  60  91 SE5       30.02F
$$
MNZ006-009>011-018-025>026-300700-
   North Central Minnesota

CITY           SKY/WX    TMP DP  RH WIND       PRES   REMARKS
BAUDETTE       CLEAR     62  54  74 S3        30.01F
FLAG ISLAND    PTCLDY    72  57  60 CALM      29.98F
INTL FALLS     MOCLDY    63  56  78 CALM      30.04S
6HR MIN TEMP:  60; 6HR MAX TEMP:  76;

WASKISH        CLOUDY    57  55  94 SE3       30.03F
BIG FORK       PTCLDY    57  54  88 CALM      30.07S
LONGVILLE      PTCLDY    61  55  82 CALM      30.06F
GRAND RAPIDS   PTCLDY    57  53  86 S3        30.09F
CRANE LAKE     CLEAR     52  52 100 CALM      30.09S
ORR            CLEAR     57  52  82 CALM      30.06S
COOK           CLEAR     54  52  94 CALM      30.09S
WALKER         CLOUDY    65  57  75 CALM      30.05F
$$
MNZ012-019>021-037-300700-
   Northeast Minnesota

CITY           SKY/WX    TMP DP  RH WIND       PRES   REMARKS
DULUTH         CLEAR     53  51  93 NE3       30.08S
6HR MIN TEMP:  53; 6HR MAX TEMP:  68;

ELY            CLEAR     54  48  82 CALM      30.09S
HIBBING        CLEAR     49  49 100 CALM      30.09S
EVELETH        CLEAR     53  51  95 CALM      30.10S
DULUTH HARBOR  CLEAR     64  59  82 NE10      30.07S
TWO HARBORS    CLEAR     57  52  82 N5        30.06F
SILVER BAY     CLEAR     48  48 100 CALM      30.07S
GRAND MARAIS     N/A     56  50  80 NW6       30.07F
G MARAIS ARPRT CLEAR     46  45  93 CALM      30.11F
$$
MNZ029>031-032-039>041-046>048-054>057-064-300700-
   West Central Minnesota

CITY           SKY/WX    TMP DP  RH WIND       PRES   REMARKS
FERGUS FALLS   MOCLDY    66  63  88 SE5       30.04
WHEATON        MOCLDY    70  63  78 S7        30.04S
MORRIS         CLEAR     63  59  88 SE7       30.03F
ALEXANDRIA     PTCLDY    65  58  78 SE5       30.07S
ELBOW LAKE     CLOUDY    66  61  85 E6        30.04S
WADENA         PTCLDY    61  59  94 CALM      30.05F
GLENWOOD       CLEAR     63  59  88 SE5       30.07S
APPLETON       CLEAR     64  57  77 SE3       30.04S
BENSON         CLEAR     63  57  82 S5        30.04F
ORTONVILLE     CLEAR     64  57  77 S5        30.04S
MADISON        CLEAR     61  59  94 SW5       30.04F
WILLMAR        FAIR      66  61  82 CALM      30.07S
$$
MNZ033>034-036-042>043-049>051-058-059-300700-
   Central Minnesota

CITY           SKY/WX    TMP DP  RH WIND       PRES   REMARKS
ST CLOUD       CLEAR     57  57 100 CALM      30.05S
6HR MIN TEMP:  57; 6HR MAX TEMP:  76;

SAUK CENTRE    MOCLDY    63  59  87 CALM      30.06S
PAYNESVILLE    PTCLDY    62  61  95 CALM      30.06S
AITKIN         CLOUDY    57  52  82 CALM      30.06S
PINE RIVER     PTCLDY    63  57  82 CALM      30.09F
BRAINERD       PTCLDY    63  55  75 CALM      30.06F
STAPLES        CLOUDY    63  55  77 CALM      30.05F
LONG PRAIRIE   CLOUDY    63  59  88 CALM      30.07S
LITTLE FALLS   CLOUDY    61  55  82 CALM      30.06S
LITCHFIELD     CLEAR     63  61  94 CALM      30.05F
BUFFALO        PTCLDY    59  55  85 CALM      30.05F
MAPLE LAKE     CLEAR     58  57  95 CALM      30.05F
HUTCHINSON     CLEAR     59  58  97 CALM      30.06S
$$
MNZ037-044-045-052-053-300700-
   East Central Minnesota

CITY           SKY/WX    TMP DP  RH WIND       PRES   REMARKS
PRINCETON      PTCLDY    59  55  88 CALM      30.05F
MORA           CLOUDY    55  54  94 CALM      30.07F
CAMBRIDGE      CLOUDY    57  52  82 CALM      30.04S
RUSH CITY      CLOUDY    57  55  93 CALM      30.06S
MOOSE LAKE     CLOUDY    54  52  94 CALM      30.06S
HINCKLEY       FAIR      55  55 100 N3        30.06F
CLOQUET        CLEAR     52  48  87 CALM      30.08S
MCGREGOR       CLOUDY    55  54  94 CALM      30.07F
$$
MNZ071>073-080-081-089-090-097-098-300700-
   Southwest Minnesota

CITY           SKY/WX    TMP DP  RH WIND       PRES   REMARKS
MONTEVIDEO     PTCLDY    63  57  82 CALM      30.06F
GRANITE FALLS  CLEAR     62  58  85 CALM      30.06S
CANBY          CLEAR     65  56  71 W5        30.06F
MARSHALL       CLEAR     59  56  89 CALM      30.06S
REDWOOD FALLS  CLEAR     63  56  78 CALM      30.04F
OLIVIA         CLEAR     61  55  82 CALM      30.04F
PIPESTONE      CLEAR     63  55  77 N3        30.08S
WINDOM         CLEAR     55  52  88 CALM      30.06F
WORTHINGTON    CLEAR     55  53  93 W3        30.08S
JACKSON        CLEAR     55  52  88 CALM      30.07S
TRACY          CLEAR     64  57  79 S3        30.07S
SLAYTON        CLEAR     56  53  88 CALM      30.08F
$$
MNZ065>067-074>077-082>085-091>093-300700-
   South Central Minnesota

CITY           SKY/WX    TMP DP  RH WIND       PRES   REMARKS
MANKATO        CLEAR     63  52  67 N3        30.04S
NEW ULM        CLEAR     61  54  77 CALM      30.04F
ST JAMES       CLEAR     54  52  94 CALM      30.05F
FAIRMONT       PTCLDY    59  52  77 CALM      30.03F
GLENCOE        CLEAR     59  57  94 CALM      30.04S
FARIBAULT      CLOUDY    63  61  94 CALM      30.04S
OWATONNA       CLOUDY    63  59  88 CALM      30.04S
WASECA         CLEAR     59  55  88 CALM      30.05S
ALBERT LEA     PTCLDY    63  61  94 CALM      30.03F
$$
MNZ078>079-086>088-094>096-300700-
   Southeast Minnesota

CITY           SKY/WX    TMP DP  RH WIND       PRES   REMARKS
ROCHESTER      CLOUDY    65  60  84 N3        30.04S
6HR MIN TEMP:  65; 6HR MAX TEMP:  73;

RED WING       MOCLDY    63  57  82 CALM      30.02S
STANTON        CLOUDY    64  59  82 CALM      30.02F
DODGE CENTER   PTCLDY    63  57  82 CALM      30.04S
WINONA         MOCLDY    66  64  94 CALM      30.03S
AUSTIN         CLOUDY    64  57  77 CALM      30.03S
PRESTON        MOCLDY    65  62  90 CALM      30.04S
$$
ABBREVIATIONS USED IN REMARKS
   TC - TEMPERATURES IN CELSIUS
  WCI - WIND CHILL INDEX
   HX - HEAT INDEX
  VSB - VISIBILITY
$$




USA.gov is the U.S. government's official web portal to all federal, state and local government web resources and services.